Tracking 19920 objects as of 15-Oct-2019
HD Live streaming from Space Station
objects crossing your sky now

WESTFORD NEEDLES

Track WESTFORD NEEDLES now!
10-day predictions
WESTFORD NEEDLES is classified as:


NORAD ID: 3257
Int'l Code: 1963-014BX
Perigee: 3,174.1 km
Apogee: 4,126.4 km
Inclination: 87.3 °
Period: 166.4 minutes
Semi major axis: 10021 km
RCS: 0.1816 m2 (medium)
Launch date: May 9, 1963
Source: United States (US)
Launch site: AIR FORCE WESTERN TEST RANGE (AFWTR)
aabbcc
Your satellite tracking list
Your tracking list is empty




NASA's NSSDC Master Catalog

Two Line Element Set (TLE):
1  3257U 63014BX  19286.23584408 -.00000391 +00000-0 -16480+0 0  9994
2  3257 087.2718 022.5740 0475156 012.0135 349.1611 08.65408258185906
Source of the keplerian elements: AFSPC